Wetbulb
55.56 55.54 55.58 55.97 56.04 55.99 56.34 56.47 56.53 56.52 56.73 56.96 56.85 56.75 56.71 57.09 56.79 49.73 45.87 51.51 54.26 57.43 56.61 51.27 50.57 49.08 50.26 51.25 54.11 54.51 46.34 44.04 45.26 45.42 46.28 49.54 47.13 50.19 50.99 49.93 51.16 52.93 53.87 56.51 54.02
55.24 55.48 55.66 55.66 55.91 55.96 56.09 56.37 56.44 56.44 56.57 56.66 56.56 56.46 56.36 56.55 50.26 46.07 51.01 55.35 56.13 56.36 50.03 48.75 46.65 47.28 47.42 48.62 51.21 49.17 45.53 45.06 47.86 47.99 46.42 48.10 46.79 47.67 46.31 47.24 47.62 49.20 52.46 53.61 52.72
55.23 55.17 55.31 55.59 55.85 55.99 56.05 56.14 56.35 56.31 56.05 55.73 55.85 55.95 56.13 55.57 48.12 44.48 53.86 54.65 55.17 54.03 50.49 50.22 48.75 46.95 45.47 47.87 48.36 49.01 44.97 46.81 45.86 47.40 46.84 45.61 45.65 47.66 45.29 44.54 47.65 47.55 49.34 51.52 50.23
55.15 55.12 55.08 55.10 55.32 55.77 56.06 55.96 56.15 56.24 55.96 55.60 55.71 55.69 56.77 51.41 42.39 47.13 52.81 53.23 53.50 51.96 49.95 48.68 47.65 45.18 44.24 43.59 46.73 42.72 46.90 46.46 46.36 45.38 44.62 43.97 46.11 44.34 45.26 46.01 48.79 47.52 48.21 48.05 47.13
55.14 55.14 55.18 54.97 55.17 55.43 55.80 55.93 56.03 56.21 56.09 55.96 56.01 55.73 53.04 46.18 43.77 49.78 53.72 53.43 50.63 49.20 47.52 47.09 45.71 45.56 43.41 43.97 44.00 42.79 44.26 44.26 45.14 44.17 43.87 44.12 42.35 42.52 43.26 46.59 47.70 47.11 46.26 45.92 46.54
55.56 55.47 55.43 55.25 55.22 55.54 55.62 55.76 55.86 56.06 55.99 55.95 55.85 55.28 48.51 43.05 48.47 49.74 49.51 49.77 49.91 49.29 47.96 48.34 46.49 46.91 44.35 43.33 42.60 43.54 43.06 43.37 43.54 42.62 42.69 40.24 41.63 40.61 44.36 45.18 45.01 46.12 45.80 46.20 46.38
56.31 56.03 55.61 55.42 55.34 55.52 55.59 55.52 55.62 55.74 55.55 55.38 54.78 52.16 45.83 43.73 48.67 50.10 49.37 48.40 49.54 49.33 46.82 48.45 48.61 45.88 44.72 42.29 44.01 42.81 39.48 42.52 42.42 41.80 40.60 41.07 39.73 39.43 44.68 44.42 43.01 43.39 44.19 44.96 45.56
56.40 56.04 55.93 55.65 55.41 55.50 55.62 55.35 54.74 54.23 54.25 53.66 53.57 49.79 42.72 47.63 50.26 48.08 48.92 47.98 49.50 49.44 48.36 49.16 48.91 45.61 44.18 44.24 41.59 39.30 39.36 39.25 40.09 39.84 40.71 39.47 39.74 43.77 42.76 41.97 42.06 42.81 43.52 44.01 44.75
56.24 55.89 55.96 56.02 55.86 55.76 55.65 53.95 52.40 52.99 53.13 53.07 49.02 46.64 41.28 48.36 44.89 47.11 47.96 45.31 47.29 48.02 47.92 47.38 46.50 42.86 41.59 40.12 40.02 39.98 38.32 39.22 38.99 38.92 38.38 38.12 39.02 43.59 41.92 41.32 41.18 42.33 43.07 43.77 44.37
56.62 56.24 56.14 56.04 55.85 55.95 54.02 50.00 50.76 50.66 49.77 48.55 46.60 44.65 43.60 41.39 44.78 45.58 47.39 46.83 45.21 44.84 44.44 44.29 44.07 41.54 40.56 39.15 38.42 37.89 37.08 38.04 36.39 38.07 37.83 37.07 37.33 41.53 44.15 43.71 43.04 43.43 43.72 43.72 43.83
57.41 56.99 56.64 56.02 55.70 54.58 51.56 50.60 48.90 47.40 46.32 39.68 40.41 40.72 41.65 45.21 46.16 44.22 45.34 44.69 44.58 42.37 38.79 41.05 38.27 38.14 39.25 38.07 36.53 35.86 35.27 35.51 38.85 38.19 34.09 36.49 37.49 40.05 43.10 43.18 42.87 43.20 42.83 42.37 42.48
57.88 57.53 57.14 55.84 55.24 52.46 51.46 45.13 42.20 41.70 39.62 41.06 41.76 41.72 43.59 44.18 39.24 42.12 45.95 40.29 39.77 37.94 38.79 37.65 36.30 37.45 37.51 36.78 35.60 35.55 34.97 35.26 37.43 35.87 33.74 36.09 35.05 39.60 41.99 42.01 41.04 41.07 41.03 41.72 42.81
57.15 57.26 57.03 55.44 54.78 52.11 47.56 44.96 48.58 46.17 39.64 39.74 41.17 41.02 41.51 42.44 38.76 39.65 42.68 40.45 37.79 36.42 36.99 36.19 35.97 36.90 35.54 35.23 33.98 35.63 33.98 34.31 31.86 34.75 37.14 33.76 37.07 43.28 40.51 39.33 40.40 40.93 42.33 42.58 42.77
56.46 56.60 56.43 54.54 51.67 49.72 46.78 47.82 48.45 45.84 40.85 39.45 37.05 39.57 40.87 41.29 37.42 42.25 42.27 40.44 38.11 35.53 35.98 36.47 36.05 34.51 34.20 33.96 34.77 32.49 34.11 32.53 31.92 31.26 31.98 33.28 30.68 38.31 42.21 39.76 39.28 40.47 41.19 42.00 42.78
55.47 56.21 53.45 52.62 47.75 45.25 47.03 48.11 47.21 44.71 31.65 37.82 36.20 42.21 40.58 36.99 38.06 38.49 42.51 39.42 36.01 36.40 35.58 34.91 33.90 33.03 32.94 34.82 35.73 33.21 33.99 32.56 32.05 30.29 25.89 29.92 28.03 38.02 38.56 38.52 40.51 41.05 41.58 42.48 43.54
53.34 54.35 52.69 52.68 51.57 47.87 46.03 44.15 42.28 37.06 31.45 33.63 36.29 35.14 34.62 36.11 36.46 38.28 38.14 40.79 39.24 35.57 35.89 34.92 36.85 35.81 35.87 34.65 34.51 35.06 33.01 32.24 30.80 30.00 27.12 27.03 29.61 36.99 40.86 40.08 39.28 40.61 42.37 42.86 43.25
52.41 54.12 52.17 51.04 49.18 50.31 48.22 44.97 35.73 31.63 37.89 34.17 33.01 34.38 33.62 33.03 33.99 34.56 33.93 33.58 34.42 31.98 32.94 33.55 33.66 34.99 35.55 32.64 34.69 33.09 31.67 32.39 30.55 29.84 31.49 29.05 26.07 35.43 41.87 40.50 39.96 39.83 40.63 42.20 43.58
53.25 52.69 49.83 49.81 49.86 48.44 47.26 42.15 31.05 34.50 34.19 34.09 33.55 33.81 32.22 32.29 32.85 32.64 32.72 32.70 35.33 33.54 33.50 33.22 32.55 32.92 35.54 33.68 31.80 32.59 31.17 30.41 25.98 29.02 31.26 26.16 27.39 36.16 38.79 38.87 41.12 42.06 41.58 41.59 41.90
52.09 50.74 49.64 50.01 49.53 48.88 46.81 32.34 32.69 36.08 38.48 34.02 33.59 32.99 32.51 31.49 31.48 31.86 32.53 32.38 33.27 34.32 31.21 32.38 30.92 33.64 33.78 34.60 33.59 31.13 28.39 30.73 27.31 17.49 22.97 32.19 35.00 38.70 40.86 39.82 39.37 39.30 40.44 40.90 41.43
49.87 49.25 48.72 50.26 49.35 47.63 38.92 32.73 34.46 40.12 37.99 37.90 35.26 36.96 34.20 31.76 32.00 31.91 33.33 34.67 32.39 33.61 34.18 32.48 29.40 31.06 31.89 33.99 33.60 30.97 32.68 28.25 29.24 23.66 24.64 32.12 31.05 34.78 39.14 36.82 36.62 37.68 38.99 40.45 40.76
47.43 42.47 45.56 48.70 48.64 43.67 32.38 32.97 37.76 40.82 40.72 38.20 35.51 35.77 36.04 32.15 32.08 34.65 34.89 33.37 34.13 33.11 34.23 32.96 30.18 28.68 30.68 29.38 31.30 28.68 28.63 28.57 28.22 27.65 25.63 26.05 33.10 40.74 40.35 37.54 38.65 38.41 39.10 39.75 41.15
44.40 34.01 45.61 45.78 36.48 33.16 32.79 32.43 38.59 37.98 39.43 37.26 35.73 35.00 34.29 34.40 33.04 33.20 33.95 36.32 35.36 35.27 31.12 33.85 30.95 26.85 29.86 30.88 31.60 31.05 30.29 30.66 26.51 27.00 26.65 22.57 26.56 40.81 38.04 37.12 37.04 38.14 39.39 40.79 40.92
39.76 39.50 44.28 42.26 31.64 32.25 33.86 35.40 37.21 36.19 36.35 35.95 35.35 36.52 36.43 33.79 32.59 33.19 34.06 33.46 34.44 34.45 35.46 33.33 30.30 27.70 27.88 27.24 29.14 27.96 30.39 30.11 29.12 26.96 23.41 22.54 28.52 37.44 36.49 37.64 39.07 39.92 40.17 39.95 39.78
39.21 31.85 34.91 36.38 38.19 36.06 32.78 31.74 32.52 38.27 37.97 37.73 36.61 36.79 32.67 31.33 34.13 32.85 33.30 33.38 33.61 33.58 34.28 35.11 32.71 30.37 27.11 30.78 31.63 26.30 27.97 29.43 28.21 24.48 26.24 27.15 29.04 34.24 37.45 38.15 39.75 41.67 40.62 40.05 38.69
37.92 33.53 36.23 29.65 30.78 33.75 35.59 35.56 32.16 32.03 36.67 37.50 34.92 34.77 33.04 30.80 31.97 29.40 33.06 34.74 33.40 34.35 34.47 34.47 28.66 29.67 30.34 31.61 31.41 29.67 28.78 30.53 26.39 27.88 25.59 30.12 31.47 35.42 37.63 38.14 38.79 39.21 38.08 36.48 35.39
34.96 34.20 36.17 35.32 34.72 32.16 32.31 31.41 30.67 32.28 33.58 31.61 32.32 34.89 35.46 31.48 33.15 29.30 33.29 33.01 33.06 33.46 31.97 32.01 28.02 23.99 23.40 27.92 27.76 25.50 28.83 29.62 29.27 29.63 29.95 30.31 29.51 36.81 38.56 39.92 38.00 37.00 36.26 34.13 33.57
39.88 40.18 36.43 34.25 32.71 30.24 31.27 31.43 31.91 34.48 35.07 36.56 35.43 34.41 32.61 35.67 38.73 39.63 38.50 37.50 36.71 33.37 30.67 30.06 28.01 24.06 24.75 20.87 20.18 21.42 25.21 27.46 29.84 31.69 30.87 26.54 32.76 37.98 36.27 35.58 35.37 35.12 34.33 33.28 33.07
MSLP
1020.71 1020.53 1020.02 1019.60 1019.34 1019.00 1018.60 1018.36 1018.19 1018.00 1017.66 1017.36 1017.01 1016.67 1016.31 1015.87 1015.51 1015.28 1015.26 1015.89 1015.44 1015.08 1014.78 1013.81 1013.23 1012.66 1012.24 1011.51 1011.32 1010.81 1009.25 1007.46 1007.12 1007.55 1007.58 1009.04 1009.23 1009.51 1009.55 1009.27 1009.06 1008.89 1008.85 1009.14 1009.97
1020.82 1020.52 1020.18 1019.83 1019.49 1019.14 1018.76 1018.51 1018.21 1017.84 1017.49 1017.16 1016.89 1016.68 1016.24 1016.04 1015.44 1015.33 1016.09 1015.76 1015.50 1015.12 1014.27 1013.37 1012.68 1012.58 1011.53 1011.31 1011.14 1010.42 1009.19 1007.88 1008.52 1008.62 1008.86 1009.42 1009.93 1009.71 1009.80 1009.03 1008.83 1008.87 1009.03 1009.79 1010.19
1020.74 1020.49 1020.21 1019.92 1019.65 1019.26 1018.88 1018.59 1018.26 1017.87 1017.48 1017.13 1016.91 1016.59 1016.13 1015.93 1015.44 1015.52 1016.12 1015.76 1015.44 1015.13 1014.45 1013.71 1013.18 1012.61 1011.68 1011.16 1011.00 1010.39 1009.62 1009.59 1009.67 1010.29 1010.51 1010.34 1010.34 1010.29 1009.98 1008.96 1008.50 1008.40 1008.34 1008.79 1009.94
1020.77 1020.50 1020.22 1019.87 1019.57 1019.23 1018.87 1018.48 1018.09 1017.83 1017.58 1017.12 1016.71 1016.32 1016.02 1015.66 1015.74 1015.74 1016.01 1015.67 1015.35 1014.89 1014.32 1013.56 1013.19 1012.39 1011.60 1011.25 1011.20 1010.99 1010.32 1010.63 1010.81 1011.46 1011.47 1011.13 1010.83 1010.47 1009.95 1009.04 1008.64 1009.19 1009.17 1009.47 1009.78
1020.51 1020.32 1020.12 1019.91 1019.64 1019.27 1018.88 1018.44 1017.96 1017.50 1017.23 1016.92 1016.54 1016.19 1015.91 1015.21 1015.52 1015.83 1015.83 1015.52 1014.97 1014.66 1014.20 1013.68 1013.11 1012.56 1011.71 1011.60 1011.82 1011.40 1010.79 1011.27 1011.43 1011.89 1011.84 1011.69 1011.21 1010.86 1009.47 1009.10 1009.11 1009.27 1009.65 1009.80 1009.73
1020.43 1020.15 1019.85 1019.66 1019.35 1018.95 1018.53 1018.19 1017.80 1017.46 1017.06 1016.73 1016.39 1016.16 1015.49 1015.25 1015.97 1015.77 1015.63 1015.37 1015.05 1014.56 1014.29 1013.99 1013.76 1013.55 1012.57 1012.19 1012.30 1012.09 1011.80 1011.40 1011.42 1011.68 1011.70 1011.76 1010.91 1010.92 1008.72 1008.92 1009.04 1009.01 1009.27 1009.44 1009.39
1020.24 1019.98 1019.66 1019.34 1019.18 1018.85 1018.33 1017.86 1017.40 1017.01 1016.80 1016.50 1016.36 1015.90 1015.28 1015.96 1015.89 1015.68 1015.54 1015.51 1015.38 1014.93 1014.49 1014.73 1014.62 1014.01 1013.40 1012.81 1012.92 1012.45 1011.86 1010.94 1011.08 1011.62 1011.68 1011.78 1009.75 1008.91 1008.51 1008.91 1008.88 1008.91 1008.97 1008.93 1009.02
1020.11 1019.91 1019.65 1019.31 1018.83 1018.51 1018.08 1017.50 1016.97 1016.70 1016.60 1016.43 1016.31 1015.82 1015.60 1016.23 1015.86 1015.82 1015.43 1015.27 1015.29 1015.21 1015.16 1015.14 1014.84 1014.27 1013.75 1013.58 1012.84 1012.24 1011.87 1010.75 1011.25 1011.81 1011.80 1011.72 1008.36 1007.74 1008.10 1008.52 1008.35 1008.37 1008.41 1008.50 1008.69
1019.81 1019.60 1019.44 1019.07 1018.64 1018.16 1017.58 1017.10 1016.70 1016.61 1016.48 1016.38 1016.13 1015.52 1015.76 1016.34 1016.14 1016.12 1015.82 1015.42 1015.32 1015.25 1015.30 1015.13 1014.63 1014.10 1013.92 1013.10 1012.10 1011.71 1010.88 1010.81 1011.10 1012.31 1012.27 1011.71 1008.75 1007.62 1008.17 1008.19 1007.92 1008.01 1007.98 1007.95 1008.07
1019.43 1019.31 1019.17 1018.90 1018.48 1017.91 1017.13 1016.74 1016.59 1016.52 1016.16 1015.90 1015.61 1015.58 1015.98 1016.12 1016.18 1016.23 1016.01 1015.79 1015.29 1014.97 1014.79 1014.62 1014.06 1013.50 1013.23 1012.81 1012.11 1011.62 1011.41 1011.25 1011.92 1012.55 1012.57 1011.66 1009.23 1007.42 1007.36 1007.11 1006.94 1007.05 1007.23 1007.45 1007.63
1019.16 1019.01 1018.99 1018.76 1018.36 1017.78 1016.77 1016.30 1016.71 1016.50 1015.88 1016.32 1016.37 1016.13 1016.10 1016.22 1016.38 1016.00 1016.04 1015.55 1015.15 1014.61 1014.11 1014.42 1014.03 1013.10 1012.86 1013.28 1013.21 1012.94 1012.71 1012.53 1012.46 1013.18 1013.34 1011.50 1009.69 1007.22 1006.84 1006.65 1006.43 1006.44 1006.63 1007.25 1007.72
1019.02 1018.85 1018.87 1018.72 1018.55 1017.91 1017.12 1017.32 1018.80 1019.50 1017.52 1016.72 1016.65 1016.52 1016.72 1016.76 1016.18 1016.02 1016.06 1015.48 1014.91 1014.19 1014.26 1014.35 1013.79 1014.04 1014.22 1014.19 1014.02 1013.70 1013.51 1013.65 1013.57 1014.16 1014.11 1011.98 1009.76 1007.29 1006.17 1006.06 1006.63 1007.06 1007.09 1007.46 1007.80
1018.94 1018.75 1018.77 1018.71 1018.52 1018.14 1018.10 1018.80 1019.12 1019.10 1018.23 1016.90 1016.84 1016.63 1016.88 1016.93 1016.17 1016.11 1016.12 1015.61 1014.86 1014.42 1014.22 1013.93 1014.50 1014.79 1014.83 1014.79 1014.63 1014.20 1014.20 1014.36 1015.08 1014.77 1013.75 1013.09 1009.45 1006.45 1006.11 1006.58 1006.86 1007.30 1007.32 1007.44 1007.58
1019.21 1018.73 1018.75 1018.77 1018.88 1018.65 1018.57 1019.26 1019.19 1019.17 1018.39 1017.11 1017.10 1017.20 1017.17 1016.94 1016.57 1016.65 1016.49 1016.19 1015.42 1014.74 1014.72 1014.57 1015.22 1015.24 1015.34 1015.17 1015.19 1014.94 1015.24 1015.57 1015.73 1015.67 1015.15 1014.26 1010.77 1007.06 1005.41 1005.93 1006.44 1006.74 1007.11 1007.43 1007.77
1019.46 1018.99 1018.91 1018.67 1019.06 1019.09 1019.38 1019.27 1019.23 1019.19 1018.52 1017.30 1017.23 1017.76 1017.42 1017.48 1017.24 1016.72 1016.95 1016.30 1015.47 1015.10 1015.31 1015.03 1015.43 1015.75 1015.77 1015.46 1015.61 1015.64 1016.08 1016.15 1016.14 1016.33 1016.51 1014.53 1012.64 1006.90 1005.73 1005.32 1005.43 1006.05 1006.70 1007.10 1007.49
1019.79 1019.33 1019.25 1019.02 1019.24 1019.52 1019.63 1019.55 1019.54 1019.38 1017.96 1017.22 1017.20 1017.29 1017.13 1017.21 1017.22 1017.18 1016.92 1016.67 1016.32 1015.63 1015.33 1015.11 1015.91 1016.10 1016.01 1016.39 1016.47 1016.57 1016.33 1016.25 1016.46 1016.34 1015.84 1013.93 1012.20 1006.94 1004.57 1004.46 1005.14 1005.70 1006.29 1006.84 1007.41
1019.85 1019.59 1019.55 1019.33 1019.43 1019.52 1019.51 1019.26 1019.55 1018.65 1017.60 1017.57 1017.21 1017.16 1017.15 1016.98 1017.04 1017.11 1016.88 1016.37 1015.52 1015.42 1015.14 1015.37 1015.60 1016.25 1016.60 1016.53 1016.84 1016.87 1016.44 1016.00 1015.94 1015.63 1014.14 1013.23 1012.11 1007.24 1004.59 1004.57 1004.93 1005.43 1006.21 1006.98 1007.38
1019.81 1019.69 1019.87 1019.68 1019.81 1019.70 1019.33 1019.20 1019.00 1018.07 1017.47 1017.57 1017.38 1017.11 1017.09 1017.34 1017.11 1016.90 1016.73 1015.96 1015.61 1015.18 1014.60 1014.70 1015.51 1016.27 1016.76 1016.50 1016.42 1016.45 1016.41 1016.22 1015.85 1015.03 1013.58 1013.13 1009.91 1005.73 1005.13 1005.06 1005.19 1005.65 1006.35 1007.02 1007.60
1020.14 1019.94 1020.06 1019.87 1019.98 1019.96 1019.61 1019.39 1018.17 1017.51 1017.06 1017.48 1017.36 1017.02 1016.89 1017.16 1017.39 1016.96 1016.40 1016.00 1015.93 1015.74 1015.39 1014.86 1015.47 1016.62 1017.18 1017.31 1017.43 1017.00 1016.73 1016.75 1016.37 1016.54 1014.59 1010.66 1008.20 1005.93 1004.41 1004.90 1005.49 1005.99 1006.48 1006.91 1007.51
1020.31 1019.97 1019.68 1020.00 1020.09 1020.07 1019.90 1019.13 1018.08 1017.30 1017.26 1017.45 1017.23 1016.67 1016.61 1016.77 1017.01 1016.90 1016.34 1016.15 1016.15 1016.32 1016.40 1016.06 1016.29 1016.99 1017.55 1017.70 1017.86 1017.77 1017.60 1017.04 1016.58 1015.44 1013.21 1009.92 1008.41 1006.15 1005.42 1005.78 1006.22 1006.59 1006.97 1007.28 1007.85
1020.55 1020.02 1020.24 1020.35 1020.18 1020.11 1019.76 1019.03 1017.97 1017.34 1017.29 1017.29 1017.26 1016.94 1016.56 1016.80 1016.98 1017.00 1016.67 1016.76 1016.69 1016.89 1016.87 1016.64 1016.98 1017.61 1017.75 1017.62 1017.11 1018.03 1017.58 1017.39 1016.89 1015.57 1013.56 1010.61 1007.51 1006.24 1006.75 1007.33 1007.25 1007.47 1007.81 1007.79 1008.06
1020.16 1020.25 1020.66 1020.62 1020.48 1019.93 1019.32 1018.78 1018.06 1017.45 1017.49 1017.29 1017.34 1017.21 1016.97 1016.88 1017.19 1017.36 1017.14 1016.86 1017.30 1017.50 1017.35 1017.34 1017.35 1017.33 1017.18 1017.66 1017.77 1017.61 1017.45 1017.23 1017.03 1015.75 1014.54 1013.05 1007.62 1007.08 1007.78 1008.14 1008.40 1008.51 1008.25 1008.26 1008.41
1020.11 1020.18 1020.78 1020.81 1019.79 1019.27 1019.05 1018.64 1018.18 1017.52 1017.15 1017.19 1016.94 1016.91 1017.01 1017.15 1017.62 1017.32 1017.60 1017.95 1018.06 1018.23 1018.07 1017.87 1018.03 1017.69 1017.46 1018.12 1018.11 1017.62 1017.23 1017.26 1017.20 1016.90 1014.84 1013.80 1008.53 1007.99 1008.50 1008.25 1008.25 1008.00 1008.36 1008.62 1008.66
1020.58 1020.42 1020.72 1020.54 1019.35 1018.61 1018.76 1018.42 1018.01 1017.18 1016.81 1016.88 1016.61 1016.93 1017.33 1017.38 1017.39 1017.57 1018.00 1018.18 1018.49 1018.73 1018.77 1018.54 1018.37 1018.10 1017.36 1016.56 1016.89 1017.18 1016.95 1016.96 1016.78 1016.18 1014.31 1012.05 1009.63 1007.93 1008.18 1007.53 1007.47 1007.84 1008.49 1008.90 1009.12
1020.37 1019.38 1018.80 1019.08 1018.78 1018.42 1017.89 1017.13 1017.00 1016.90 1016.83 1016.69 1016.42 1016.42 1016.84 1017.14 1017.09 1017.50 1017.80 1018.09 1018.55 1018.76 1018.99 1019.15 1018.86 1018.65 1017.84 1017.48 1017.21 1016.96 1016.66 1016.27 1016.13 1014.94 1014.27 1010.14 1009.76 1007.89 1007.71 1007.76 1007.84 1008.12 1008.58 1009.18 1009.75
1019.70 1019.14 1018.88 1017.84 1017.63 1017.78 1017.49 1016.11 1016.44 1016.70 1016.45 1016.31 1015.93 1016.02 1016.26 1016.09 1016.18 1016.76 1017.23 1017.89 1017.90 1018.79 1019.27 1019.86 1019.39 1019.39 1018.41 1017.86 1017.57 1016.61 1015.59 1015.35 1014.88 1013.81 1012.90 1011.02 1009.53 1008.94 1008.03 1007.75 1007.79 1008.54 1009.06 1009.48 1009.95
1018.99 1018.88 1018.68 1017.16 1016.95 1016.88 1015.71 1015.41 1015.27 1015.97 1015.66 1015.44 1015.54 1015.81 1015.86 1015.74 1016.27 1016.42 1017.13 1017.76 1018.12 1018.64 1019.41 1019.78 1019.84 1019.83 1018.21 1018.10 1017.70 1015.89 1013.49 1013.32 1012.60 1012.04 1011.52 1010.61 1008.63 1008.48 1007.51 1007.93 1008.19 1008.77 1009.21 1009.70 1010.21
Wind_Speed
9 9 10 11 12 12 12 11 11 11 11 12 13 13 13 14 10 3 4 9 10 15 13 8 5 3 5 5 3 3 7 7 6 6 1 3 4 4 2 8 6 5 8 7 5
8 9 10 10 11 11 11 11 11 11 11 12 13 13 12 11 4 6 6 12 13 12 7 4 2 5 5 4 4 7 6 4 6 3 3 1 5 8 6 9 11 12 11 4 5
8 10 10 11 11 11 11 11 11 11 11 11 12 12 12 7 5 4 10 12 12 12 6 4 3 6 5 4 6 4 6 7 1 5 4 7 9 10 9 11 14 14 9 12 7
7 8 10 11 12 13 13 12 11 10 11 11 12 12 11 4 3 4 11 10 8 8 5 3 6 5 5 5 3 6 6 5 2 1 3 6 7 10 15 18 12 6 8 7 10
7 8 9 10 11 12 13 14 13 12 12 12 13 11 5 5 3 5 9 5 3 3 3 3 6 4 6 2 4 9 6 4 5 5 9 10 15 15 20 19 14 13 11 12 11
8 8 9 11 13 13 14 15 15 14 12 12 11 12 6 5 2 5 7 4 8 5 6 6 4 4 3 3 6 3 7 10 6 6 7 9 12 3 6 2 8 13 15 15 12
9 9 9 10 13 15 15 16 16 15 14 10 8 5 2 5 1 5 4 3 5 7 3 5 4 5 2 3 2 4 8 7 7 3 3 8 14 17 15 9 9 10 12 11 10
9 9 10 11 12 15 17 18 16 11 7 5 5 4 2 1 1 5 5 2 3 4 2 2 2 1 3 0 3 5 4 5 6 2 3 5 12 7 4 6 10 9 9 10 12
8 8 10 11 13 15 17 16 5 3 4 5 5 5 3 4 1 4 5 2 1 1 1 1 2 1 3 4 6 5 7 6 2 4 5 3 14 3 2 7 12 13 15 15 16
9 8 8 10 12 16 17 5 2 4 5 4 3 4 3 1 2 3 1 3 1 1 3 3 3 4 5 5 3 5 6 3 7 5 6 14 26 25 17 16 19 16 15 15 14
9 9 9 9 12 17 11 2 4 5 5 4 4 4 1 4 2 1 3 3 2 3 3 3 4 8 5 3 4 5 6 11 11 6 7 10 20 27 18 19 19 15 10 8 8
7 7 7 8 12 14 5 5 4 3 7 1 1 2 2 3 3 2 6 3 3 4 3 4 7 4 2 1 3 4 8 6 8 3 5 13 25 28 21 9 5 4 4 8 10
8 7 6 6 10 4 5 4 1 2 6 2 1 2 2 4 1 1 5 1 3 4 6 8 4 3 2 3 5 7 7 5 5 10 8 13 13 8 3 4 5 5 4 6 9
10 6 1 5 4 2 3 3 1 1 4 2 1 3 1 3 3 2 2 3 3 3 2 5 4 4 4 6 4 7 3 1 6 8 4 6 8 11 3 6 7 8 9 9 8
13 3 4 4 1 1 3 1 2 3 5 3 2 2 3 4 4 2 2 2 3 3 3 5 3 5 6 3 4 3 1 4 5 3 4 2 4 9 2 4 8 11 11 11 9
16 1 2 2 1 2 2 2 0 1 8 3 1 1 1 0 1 3 2 1 2 2 4 1 1 2 3 1 2 2 4 4 2 2 4 4 4 8 4 3 5 5 10 11 10
15 2 3 2 2 2 2 3 1 5 3 3 1 2 1 1 1 2 3 5 4 3 5 4 5 4 3 4 3 3 5 3 3 3 2 5 4 12 9 3 2 5 5 5 7
14 4 4 3 2 3 3 1 6 2 5 1 2 2 2 2 2 1 3 5 5 4 2 4 4 6 6 2 2 5 2 3 7 4 4 2 8 6 1 3 5 6 5 4 7
0 1 0 2 3 2 2 4 5 5 2 4 2 4 3 3 3 2 4 2 2 6 5 3 3 4 2 2 4 5 4 3 2 2 4 6 7 14 9 11 10 9 8 9 6
4 3 3 3 2 2 1 6 5 2 3 3 4 3 3 4 3 2 3 3 3 1 1 3 4 2 4 1 2 4 2 2 3 5 7 5 5 11 4 1 4 4 1 1 1
3 4 3 1 3 2 6 7 5 5 6 5 3 2 5 2 2 1 3 3 2 3 4 1 1 4 2 6 1 3 4 4 4 3 5 9 5 2 5 7 3 5 5 5 11
4 4 3 2 4 3 7 7 3 5 6 5 2 4 4 3 3 3 4 3 2 4 3 1 1 4 5 4 2 1 2 4 4 3 4 4 12 11 7 5 3 7 7 10 11
3 1 1 2 7 8 3 4 6 6 8 7 8 8 3 4 3 6 2 3 2 3 3 5 3 3 5 2 3 6 7 7 4 3 11 9 10 5 3 7 9 12 9 9 12
2 3 2 2 2 11 8 7 7 7 13 7 5 5 4 6 9 2 2 1 2 3 2 2 3 7 12 9 3 5 9 11 10 5 9 18 28 24 23 24 19 15 14 10 11
3 5 6 6 11 12 15 6 9 9 9 10 6 15 10 7 8 5 7 4 6 5 5 1 6 7 12 14 13 14 15 15 16 19 12 24 24 24 25 25 23 20 7 8 9
3 3 2 3 10 16 20 17 15 10 10 7 16 12 18 14 12 5 7 7 6 7 7 4 3 1 5 8 9 15 19 17 21 25 25 29 32 28 26 18 15 14 5 8 12
4 2 4 7 10 12 18 20 18 19 12 17 12 15 12 14 15 12 6 5 3 7 9 8 4 4 6 3 3 11 12 20 15 18 19 21 23 19 26 22 18 9 8 10 9
Wind_Direction
351 348 352 356 354 351 350 349 345 340 339 337 339 340 342 340 305 243 31 343 319 319 316 279 247 194 213 173 237 269 248 254 250 242 83 112 263 141 334 268 234 233 280 48 72
345 343 340 342 343 343 342 337 335 334 334 333 333 331 336 334 273 48 12 331 321 324 304 301 182 202 181 186 193 235 256 301 20 332 277 246 271 314 278 248 247 246 244 207 247
342 341 338 334 331 332 334 330 326 324 324 325 322 323 330 303 245 58 2 336 329 307 272 294 261 246 220 202 188 181 256 24 285 320 314 294 280 259 268 267 258 262 267 219 254
335 336 334 335 330 327 327 326 321 317 315 317 318 321 325 224 312 23 341 328 311 306 274 260 231 227 240 221 186 253 247 273 337 6 284 274 311 266 254 253 296 271 289 258 254
318 325 329 329 327 324 322 322 318 314 313 314 313 317 270 215 79 355 325 332 293 308 360 308 252 272 246 245 241 244 279 269 269 264 268 276 265 267 270 265 262 261 245 249 251
305 311 322 325 324 325 323 319 314 308 306 303 300 308 247 239 3 349 347 359 20 8 28 3 350 316 305 254 246 5 286 276 274 270 267 274 274 294 251 204 249 239 237 243 243
301 307 313 320 322 321 321 316 310 304 299 291 283 285 256 72 18 1 18 22 11 19 23 34 342 293 341 251 336 301 292 268 230 263 269 301 267 226 249 207 240 221 230 240 235
299 304 309 313 317 319 320 316 311 296 275 253 269 259 79 118 2 12 360 77 44 39 54 15 342 117 316 335 232 261 254 273 114 281 123 290 279 177 172 210 244 243 241 238 228
290 302 308 313 317 317 321 319 311 277 240 242 232 261 118 146 204 351 2 0 306 117 86 260 264 331 199 258 253 194 292 269 269 48 322 280 292 273 125 239 256 259 260 255 250
283 293 301 311 319 322 325 295 291 216 210 230 220 210 154 61 335 317 351 321 281 224 212 239 240 254 219 230 266 325 293 272 285 43 312 283 273 281 278 273 274 272 267 266 261
284 293 303 318 328 333 335 254 245 183 43 17 339 307 343 342 227 58 357 272 234 218 248 76 264 234 13 348 323 300 283 283 293 37 306 274 283 286 287 281 278 273 260 236 219
284 291 303 319 328 326 321 42 60 349 303 109 278 259 334 333 272 66 331 253 229 236 167 207 239 57 75 135 264 260 289 289 289 21 297 300 293 283 287 264 270 282 194 174 178
327 312 311 309 326 312 45 68 103 295 260 123 17 326 9 301 308 39 324 294 254 223 219 259 70 122 226 224 263 251 255 296 282 319 262 307 269 276 170 210 231 216 223 184 179
347 329 324 321 292 351 62 106 49 304 291 163 122 69 292 318 222 12 18 322 197 262 218 270 104 203 226 253 227 277 45 284 297 337 303 12 288 292 265 243 203 203 204 205 201
349 29 77 19 101 19 48 60 4 246 296 57 83 351 353 302 348 104 18 205 235 165 218 84 177 202 238 268 200 16 346 312 311 300 321 169 232 274 165 226 215 204 208 208 214
351 118 134 136 148 82 106 70 181 97 247 102 107 4 283 108 334 324 252 215 5 209 217 319 98 245 348 94 266 61 272 221 238 163 240 142 231 286 244 140 154 168 201 213 209
334 251 309 333 24 122 203 243 345 216 341 316 38 5 330 342 209 322 283 216 209 151 213 170 194 140 206 224 178 243 278 274 245 214 277 144 213 251 284 165 195 166 170 212 212
315 141 22 37 40 318 252 39 215 225 217 198 243 234 273 344 169 227 261 268 232 255 267 236 223 186 149 273 6 186 300 300 289 289 356 158 240 244 346 349 260 238 242 254 230
158 71 257 67 357 303 232 214 222 215 149 185 183 228 184 185 265 282 222 258 331 225 246 249 172 117 71 344 307 129 205 51 293 141 266 232 260 266 274 228 242 231 247 245 238
294 248 176 360 343 244 143 235 244 260 139 103 227 230 251 179 202 190 207 150 168 209 329 45 275 24 89 231 160 288 30 230 170 281 271 228 261 262 262 88 122 151 188 200 321
268 232 83 308 255 182 218 226 246 213 207 214 237 269 240 250 236 230 280 135 245 157 199 199 257 108 176 197 233 158 225 222 289 243 277 300 265 19 25 20 23 63 358 344 322
259 232 66 299 173 199 208 192 295 210 208 229 211 240 227 208 225 250 251 232 121 175 189 121 239 230 240 92 42 46 305 244 264 205 255 302 265 308 61 72 9 299 291 306 316
234 226 87 302 211 212 205 245 249 205 203 196 212 219 211 215 241 220 198 35 133 216 192 173 191 275 183 176 182 224 192 217 223 261 253 264 263 112 9 306 272 285 267 297 309
261 228 214 230 271 231 198 222 225 220 236 211 225 172 163 216 226 201 226 187 183 202 271 199 207 242 263 321 42 208 206 212 206 233 272 246 283 276 280 276 297 303 319 305 311
227 229 199 206 230 220 231 189 208 211 221 218 239 206 194 217 218 208 229 230 203 187 184 155 249 230 259 278 282 266 263 246 224 238 247 267 264 289 287 298 302 303 316 302 294
231 214 224 227 229 206 219 229 213 225 188 216 229 208 220 227 209 189 215 222 231 172 178 172 251 132 261 246 269 268 259 255 250 255 256 262 271 273 285 297 308 302 291 301 303
216 221 275 236 216 224 217 227 234 215 241 231 218 235 227 231 242 257 308 277 248 181 196 182 201 207 249 84 311 269 239 225 242 243 241 253 260 298 306 312 307 291 295 299 298